| time (UTC) | temp F | wind direction | speed MPH | gust MPH | rain 1hr in | rain 24hr in | rain mn in | humidity % | barometer mb |
| 20260904151516 | 85 | 140 | 5.0 | 12.0 | 0.00 | 0.00 | 0.00 | 67 | 1011.8 |
| 20260904151501 | 67 | 138 | 0.0 | 0.0 | 0.00 | 0.00 | 0.00 | 84 | 1012.6 |
| 20260904150017 | 84 | 211 | 10.0 | 16.0 | 0.00 | 0.00 | 0.00 | 68 | 1011.7 |
| 20260904150003 | 67 | 140 | 0.0 | 0.0 | 0.00 | 0.00 | 0.00 | 85 | 1012.6 |
| 20260904144600 | 66 | 104 | 0.0 | 0.0 | 0.00 | 0.00 | 0.00 | 87 | 1012.8 |
| 20260904144508 | 83 | 172 | 5.0 | 13.0 | 0.00 | 0.00 | 0.00 | 70 | 1011.7 |
| 20260904143059 | 65 | 150 | 0.0 | 0.0 | 0.00 | 0.00 | 0.00 | 88 | 1012.6 |
| 20260904143009 | 82 | 194 | 8.0 | 11.0 | 0.00 | 0.00 | 0.00 | 71 | 1011.7 |
| 20260904141558 | 64 | 150 | 0.0 | 0.0 | 0.00 | 0.00 | 0.00 | 89 | 1012.4 |
| 20260904141503 | 82 | 218 | 5.0 | 10.0 | 0.00 | 0.00 | 0.00 | 72 | 1011.7 |
| 20260904140056 | 64 | 149 | 0.0 | 0.0 | 0.00 | 0.00 | 0.00 | 89 | 1012.1 |
| 20260904134557 | 79 | 162 | 2.0 | 6.0 | 0.00 | 0.00 | 0.00 | 77 | 1011.9 |
| 20260904134554 | 64 | 149 | 0.0 | 0.0 | 0.00 | 0.00 | 0.00 | 89 | 1012.1 |
| 20260904133054 | 64 | 149 | 0.0 | 0.0 | 0.00 | 0.00 | 0.00 | 89 | 1012.1 |
| 20260904131614 | 64 | 149 | 0.0 | 0.0 | 0.00 | 0.00 | 0.00 | 89 | 1012.0 |
| 20260904131551 | 77 | 133 | 1.0 | 3.0 | 0.00 | 0.00 | 0.00 | 81 | 1011.7 |
| 20260904130053 | 64 | 148 | 0.0 | 0.0 | 0.00 | 0.00 | 0.00 | 89 | 1012.0 |
| 20260904130050 | 76 | 187 | 0.0 | 2.0 | 0.00 | 0.00 | 0.00 | 85 | 1011.7 |
| 20260904124552 | 64 | 148 | 0.0 | 0.0 | 0.00 | 0.00 | 0.00 | 89 | 1012.1 |
| 20260904123050 | 64 | 148 | 0.0 | 0.0 | 0.00 | 0.00 | 0.00 | 89 | 1012.0 |
| 20260904123047 | 73 | 195 | 0.0 | 0.0 | 0.00 | 0.00 | 0.00 | 85 | 1011.3 |
| 20260904121549 | 64 | 148 | 0.0 | 0.0 | 0.00 | 0.00 | 0.00 | 89 | 1011.8 |
| 20260904121546 | 73 | 359 | 0.0 | 1.0 | 0.00 | 0.00 | 0.00 | 85 | 1011.1 |
| 20260904120052 | 64 | 148 | 0.0 | 0.0 | 0.00 | 0.00 | 0.00 | 88 | 1011.6 |
| 20260904114549 | 65 | 148 | 0.0 | 0.0 | 0.00 | 0.00 | 0.00 | 88 | 1011.8 |
| 20260904114545 | 73 | 359 | 0.0 | 1.0 | 0.00 | 0.00 | 0.00 | 85 | 1010.8 |
| 20260904113045 | 65 | 148 | 0.0 | 0.0 | 0.00 | 0.00 | 0.00 | 89 | 1011.6 |
| 20260904113041 | 73 | 359 | 0.0 | 2.0 | 0.00 | 0.00 | 0.00 | 85 | 1010.6 |
| 20260904111545 | 65 | 148 | 0.0 | 0.0 | 0.00 | 0.00 | 0.00 | 89 | 1011.6 |
| 20260904111539 | 73 | 359 | 0.0 | 2.0 | 0.00 | 0.00 | 0.00 | 85 | 1010.4 |
| 20260904110043 | 65 | 148 | 0.0 | 0.0 | 0.00 | 0.00 | 0.00 | 88 | 1011.5 |
| 20260904104545 | 65 | 148 | 0.0 | 0.0 | 0.00 | 0.00 | 0.00 | 88 | 1011.6 |
| 20260904104538 | 73 | 359 | 0.0 | 0.0 | 0.00 | 0.00 | 0.00 | 85 | 1010.3 |
| 20260904103050 | 65 | 148 | 0.0 | 0.0 | 0.00 | 0.00 | 0.00 | 88 | 1011.6 |
| 20260904103039 | 73 | 359 | 0.0 | 0.0 | 0.00 | 0.00 | 0.00 | 85 | 1010.3 |
| 20260904101539 | 65 | 148 | 0.0 | 0.0 | 0.00 | 0.00 | 0.00 | 88 | 1011.5 |
| 20260904101535 | 73 | 359 | 0.0 | 1.0 | 0.00 | 0.00 | 0.00 | 85 | 1010.0 |
| 20260904100038 | 66 | 148 | 0.0 | 0.0 | 0.00 | 0.00 | 0.00 | 87 | 1011.5 |
| 20260904094541 | 73 | 359 | 0.0 | 1.0 | 0.00 | 0.00 | 0.00 | 84 | 1009.9 |
| 20260904093037 | 66 | 148 | 0.0 | 0.0 | 0.00 | 0.00 | 0.00 | 87 | 1011.6 |
| 20260904093031 | 74 | 359 | 0.0 | 0.0 | 0.00 | 0.00 | 0.00 | 85 | 1009.8 |
| 20260904091535 | 74 | 359 | 0.0 | 0.0 | 0.00 | 0.00 | 0.00 | 85 | 1009.7 |
| 20260904090034 | 66 | 149 | 0.0 | 0.0 | 0.00 | 0.00 | 0.00 | 88 | 1011.5 |
| 20260904090027 | 74 | 359 | 0.0 | 0.0 | 0.00 | 0.00 | 0.00 | 84 | 1009.4 |
| 20260904084534 | 66 | 152 | 0.0 | 0.0 | 0.00 | 0.00 | 0.00 | 88 | 1011.6 |
| 20260904084526 | 74 | 359 | 0.0 | 0.0 | 0.00 | 0.00 | 0.00 | 84 | 1009.3 |
| 20260904083047 | 66 | 153 | 0.0 | 0.0 | 0.00 | 0.00 | 0.00 | 88 | 1011.7 |
| 20260904083024 | 74 | 359 | 0.0 | 0.0 | 0.00 | 0.00 | 0.00 | 83 | 1009.3 |
| 20260904081531 | 66 | 153 | 0.0 | 0.0 | 0.00 | 0.00 | 0.00 | 88 | 1011.8 |
| 20260904081522 | 75 | 359 | 0.0 | 0.0 | 0.00 | 0.00 | 0.00 | 82 | 1009.3 |
| 20260904080031 | 66 | 153 | 0.0 | 0.0 | 0.00 | 0.00 | 0.00 | 87 | 1011.8 |
| 20260904080021 | 75 | 359 | 0.0 | 0.0 | 0.00 | 0.00 | 0.00 | 81 | 1009.2 |
| 20260904074545 | 66 | 153 | 0.0 | 0.0 | 0.00 | 0.00 | 0.00 | 87 | 1011.8 |
| 20260904074518 | 76 | 359 | 0.0 | 0.0 | 0.00 | 0.00 | 0.00 | 80 | 1009.3 |
| 20260904073034 | 67 | 153 | 0.0 | 0.0 | 0.00 | 0.00 | 0.00 | 87 | 1011.8 |
| 20260904073017 | 76 | 359 | 0.0 | 0.0 | 0.00 | 0.00 | 0.00 | 79 | 1009.3 |
| 20260904071527 | 67 | 153 | 0.0 | 0.0 | 0.00 | 0.00 | 0.00 | 87 | 1011.8 |
| 20260904071516 | 77 | 359 | 0.0 | 0.0 | 0.00 | 0.00 | 0.00 | 79 | 1009.3 |
| 20260904070024 | 67 | 153 | 0.0 | 0.0 | 0.00 | 0.00 | 0.00 | 86 | 1011.8 |
| 20260904070016 | 77 | 197 | 0.0 | 1.0 | 0.00 | 0.00 | 0.00 | 78 | 1009.3 |
| 20260904064530 | 67 | 153 | 0.0 | 0.0 | 0.00 | 0.00 | 0.00 | 86 | 1011.7 |
| 20260904064521 | 77 | 199 | 1.0 | 3.0 | 0.00 | 0.00 | 0.00 | 77 | 1009.5 |
| 20260904063023 | 77 | 359 | 1.0 | 3.0 | 0.00 | 0.00 | 0.00 | 79 | 1009.4 |
| 20260904061530 | 67 | 153 | 0.0 | 0.0 | 0.00 | 0.00 | 0.00 | 86 | 1011.6 |
| 20260904061511 | 77 | 197 | 0.0 | 0.0 | 0.00 | 0.00 | 0.00 | 79 | 1009.5 |
| 20260904060026 | 68 | 153 | 0.0 | 0.0 | 0.00 | 0.00 | 0.00 | 86 | 1011.6 |
| 20260904060010 | 77 | 359 | 0.0 | 0.0 | 0.00 | 0.00 | 0.00 | 79 | 1009.4 |
| 20260904054522 | 68 | 153 | 0.0 | 0.0 | 0.00 | 0.00 | 0.00 | 85 | 1011.6 |
| 20260904054510 | 77 | 195 | 0.0 | 0.0 | 0.00 | 0.00 | 0.00 | 79 | 1009.4 |
| 20260904053021 | 68 | 153 | 0.0 | 0.0 | 0.00 | 0.00 | 0.00 | 84 | 1011.6 |
| 20260904053008 | 78 | 189 | 0.0 | 0.0 | 0.00 | 0.00 | 0.00 | 79 | 1009.4 |
| 20260904051521 | 68 | 153 | 0.0 | 0.0 | 0.00 | 0.00 | 0.00 | 84 | 1011.7 |
| 20260904051504 | 78 | 189 | 0.0 | 0.0 | 0.00 | 0.00 | 0.00 | 78 | 1009.2 |
| 20260904050020 | 68 | 153 | 0.0 | 0.0 | 0.00 | 0.00 | 0.00 | 83 | 1011.6 |
| 20260904050002 | 78 | 188 | 0.0 | 0.0 | 0.00 | 0.00 | 0.00 | 78 | 1009.2 |
| 20260904044520 | 68 | 153 | 0.0 | 0.0 | 0.00 | 0.00 | 0.00 | 83 | 1011.4 |
| 20260904044506 | 79 | 189 | 0.0 | 0.0 | 0.00 | 0.00 | 0.00 | 77 | 1009.2 |
| 20260904043019 | 69 | 153 | 0.0 | 0.0 | 0.00 | 0.00 | 0.00 | 83 | 1011.3 |
| 20260904043004 | 79 | 189 | 0.0 | 0.0 | 0.00 | 0.00 | 0.00 | 77 | 1009.1 |
| 20260904041521 | 69 | 153 | 0.0 | 0.0 | 0.00 | 0.00 | 0.00 | 83 | 1011.3 |
| 20260904041501 | 79 | 188 | 0.0 | 0.0 | 0.00 | 0.00 | 0.00 | 77 | 1009.0 |
| 20260904040018 | 69 | 155 | 0.0 | 0.0 | 0.00 | 0.00 | 0.00 | 83 | 1011.2 |
| 20260904040002 | 80 | 189 | 0.0 | 0.0 | 0.00 | 0.00 | 0.00 | 76 | 1009.0 |
| 20260904034600 | 81 | 359 | 0.0 | 0.0 | 0.00 | 0.00 | 0.00 | 75 | 1009.0 |
| 20260904034518 | 69 | 155 | 0.0 | 0.0 | 0.00 | 0.00 | 0.00 | 83 | 1011.1 |
| 20260904033100 | 83 | 193 | 0.0 | 0.0 | 0.00 | 0.00 | 0.00 | 69 | 1009.1 |
| 20260904033017 | 69 | 154 | 0.0 | 0.0 | 0.00 | 0.00 | 0.00 | 83 | 1010.9 |
| 20260904031603 | 84 | 189 | 0.0 | 2.0 | 0.00 | 0.00 | 0.00 | 65 | 1009.1 |
| 20260904031517 | 69 | 148 | 0.0 | 0.0 | 0.00 | 0.00 | 0.00 | 82 | 1010.8 |
| 20260904030059 | 84 | 187 | 0.0 | 3.0 | 0.00 | 0.00 | 0.00 | 63 | 1008.9 |
| 20260904030016 | 69 | 159 | 0.0 | 0.0 | 0.00 | 0.00 | 0.00 | 81 | 1010.7 |
| 20260904024606 | 85 | 187 | 1.0 | 3.0 | 0.00 | 0.00 | 0.00 | 62 | 1008.8 |
| 20260904024516 | 70 | 145 | 0.0 | 0.0 | 0.00 | 0.00 | 0.00 | 80 | 1010.8 |
| 20260904023105 | 86 | 185 | 2.0 | 4.0 | 0.00 | 0.00 | 0.00 | 60 | 1008.5 |
| 20260904023015 | 70 | 154 | 0.0 | 0.0 | 0.00 | 0.00 | 0.00 | 78 | 1010.7 |
| 20260904021600 | 87 | 147 | 0.0 | 3.0 | 0.00 | 0.00 | 0.00 | 60 | 1008.6 |
| 20260904021520 | 71 | 145 | 0.0 | 0.0 | 0.00 | 0.00 | 0.00 | 78 | 1010.7 |
| 20260904020058 | 88 | 181 | 1.0 | 7.0 | 0.00 | 0.00 | 0.00 | 56 | 1008.5 |
| 20260904020015 | 71 | 138 | 0.0 | 0.0 | 0.00 | 0.00 | 0.00 | 77 | 1010.7 |
| 20260904014559 | 88 | 177 | 1.0 | 3.0 | 0.00 | 0.00 | 0.00 | 55 | 1008.3 |
| 20260904014514 | 72 | 155 | 0.0 | 0.0 | 0.00 | 0.00 | 0.00 | 76 | 1010.6 |
| 20260904013121 | 89 | 144 | 2.0 | 4.0 | 0.00 | 0.00 | 0.00 | 54 | 1008.1 |
| 20260904013012 | 73 | 163 | 0.0 | 0.0 | 0.00 | 0.00 | 0.00 | 74 | 1010.7 |
| 20260904011633 | 73 | 153 | 0.0 | 0.0 | 0.00 | 0.00 | 0.00 | 74 | 1010.7 |
| 20260904011556 | 90 | 151 | 3.0 | 5.0 | 0.00 | 0.00 | 0.00 | 52 | 1007.8 |
| 20260904010056 | 91 | 149 | 2.0 | 5.0 | 0.00 | 0.00 | 0.00 | 51 | 1007.8 |
| 20260904010011 | 74 | 148 | 0.0 | 0.0 | 0.00 | 0.00 | 0.00 | 73 | 1010.6 |
| 20260904004555 | 92 | 139 | 3.0 | 6.0 | 0.00 | 0.00 | 0.00 | 50 | 1007.7 |
| 20260904004510 | 75 | 129 | 0.0 | 0.0 | 0.00 | 0.00 | 0.00 | 72 | 1010.7 |
| 20260904003055 | 93 | 143 | 3.0 | 7.0 | 0.00 | 0.00 | 0.00 | 48 | 1007.6 |
| 20260904003010 | 75 | 152 | 0.0 | 0.0 | 0.00 | 0.00 | 0.00 | 71 | 1010.7 |
| 20260904001607 | 93 | 150 | 2.0 | 9.0 | 0.00 | 0.00 | 0.00 | 47 | 1007.7 |
| 20260904001510 | 76 | 157 | 0.0 | 0.0 | 0.00 | 0.00 | 0.00 | 69 | 1010.7 |
| 20260904000054 | 94 | 135 | 3.0 | 9.0 | 0.00 | 0.00 | 0.00 | 46 | 1007.6 |
| 20260904000012 | 76 | 154 | 0.0 | 0.0 | 0.00 | 0.00 | 0.00 | 69 | 1010.8 |
| 20260903234554 | 95 | 181 | 4.0 | 11.0 | 0.00 | 0.00 | 0.00 | 45 | 1007.6 |
| 20260903234509 | 77 | 166 | 0.0 | 0.0 | 0.00 | 0.00 | 0.00 | 67 | 1010.8 |
| 20260903233053 | 95 | 168 | 4.0 | 14.0 | 0.00 | 0.00 | 0.00 | 45 | 1007.6 |
| 20260903233004 | 77 | 150 | 0.0 | 0.0 | 0.00 | 0.00 | 0.00 | 67 | 1011.0 |
| 20260903231602 | 96 | 117 | 3.0 | 12.0 | 0.00 | 0.00 | 0.00 | 44 | 1007.6 |
| 20260903231504 | 78 | 159 | 0.0 | 0.0 | 0.00 | 0.00 | 0.00 | 67 | 1011.3 |
| 20260903230052 | 96 | 134 | 5.0 | 16.0 | 0.00 | 0.00 | 0.00 | 44 | 1007.6 |
| 20260903230007 | 78 | 188 | 0.0 | 0.0 | 0.00 | 0.00 | 0.00 | 66 | 1011.3 |
| 20260903224552 | 96 | 201 | 5.0 | 11.0 | 0.00 | 0.00 | 0.00 | 44 | 1007.7 |
| 20260903224502 | 79 | 169 | 0.0 | 0.0 | 0.00 | 0.00 | 0.00 | 64 | 1011.4 |
| 20260903223114 | 78 | 144 | 0.0 | 0.0 | 0.00 | 0.00 | 0.00 | 63 | 1011.5 |
| 20260903223049 | 96 | 197 | 4.0 | 16.0 | 0.00 | 0.00 | 0.00 | 44 | 1007.6 |
| 20260903221559 | 78 | 150 | 0.0 | 1.0 | 0.00 | 0.00 | 0.00 | 65 | 1011.6 |
| 20260903221545 | 96 | 173 | 5.0 | 18.0 | 0.00 | 0.00 | 0.00 | 44 | 1007.7 |
| 20260903220123 | 78 | 159 | 0.0 | 0.0 | 0.00 | 0.00 | 0.00 | 64 | 1011.7 |
| 20260903220044 | 96 | 221 | 5.0 | 15.0 | 0.00 | 0.00 | 0.00 | 43 | 1007.6 |
| 20260903214556 | 79 | 169 | 0.0 | 1.0 | 0.00 | 0.00 | 0.00 | 65 | 1011.8 |
| 20260903214540 | 96 | 202 | 4.0 | 15.0 | 0.00 | 0.00 | 0.00 | 44 | 1007.7 |
| 20260903213055 | 79 | 163 | 0.0 | 0.0 | 0.00 | 0.00 | 0.00 | 66 | 1011.9 |
| 20260903213042 | 96 | 75 | 6.0 | 12.0 | 0.00 | 0.00 | 0.00 | 44 | 1007.8 |
| 20260903211556 | 80 | 156 | 0.0 | 0.0 | 0.00 | 0.00 | 0.00 | 66 | 1011.8 |
| 20260903211523 | 96 | 131 | 4.0 | 16.0 | 0.00 | 0.00 | 0.00 | 45 | 1007.9 |
| 20260903210115 | 96 | 135 | 10.0 | 19.0 | 0.00 | 0.00 | 0.00 | 45 | 1007.9 |
| 20260903210059 | 80 | 133 | 0.0 | 1.0 | 0.00 | 0.00 | 0.00 | 66 | 1011.8 |
| 20260903204551 | 80 | 156 | 0.0 | 0.0 | 0.00 | 0.00 | 0.00 | 66 | 1012.0 |
| 20260903204507 | 95 | 339 | 9.0 | 19.0 | 0.00 | 0.00 | 0.00 | 45 | 1008.1 |
| 20260903203055 | 80 | 150 | 0.0 | 0.0 | 0.00 | 0.00 | 0.00 | 65 | 1012.0 |
| 20260903203002 | 95 | 184 | 6.0 | 17.0 | 0.00 | 0.00 | 0.00 | 46 | 1008.3 |
| 20260903201558 | 95 | 173 | 9.0 | 17.0 | 0.00 | 0.00 | 0.00 | 45 | 1008.6 |
| 20260903201548 | 79 | 153 | 0.0 | 0.0 | 0.00 | 0.00 | 0.00 | 67 | 1012.2 |
| 20260903200054 | 95 | 206 | 7.0 | 20.0 | 0.00 | 0.00 | 0.00 | 46 | 1008.8 |
| 20260903200047 | 80 | 160 | 0.0 | 1.0 | 0.00 | 0.00 | 0.00 | 65 | 1012.4 |
| 20260903194552 | 95 | 157 | 9.0 | 17.0 | 0.00 | 0.00 | 0.00 | 46 | 1008.9 |
| 20260903194547 | 80 | 153 | 0.0 | 0.0 | 0.00 | 0.00 | 0.00 | 64 | 1012.5 |
| 20260903193051 | 95 | 210 | 6.0 | 15.0 | 0.00 | 0.00 | 0.00 | 47 | 1009.0 |
| 20260903193040 | 79 | 155 | 0.0 | 0.0 | 0.00 | 0.00 | 0.00 | 65 | 1012.7 |
| 20260903191547 | 95 | 191 | 7.0 | 16.0 | 0.00 | 0.00 | 0.00 | 48 | 1009.1 |
| 20260903191537 | 78 | 114 | 0.0 | 0.0 | 0.00 | 0.00 | 0.00 | 66 | 1013.1 |
| 20260903190043 | 94 | 201 | 9.0 | 17.0 | 0.00 | 0.00 | 0.00 | 47 | 1009.2 |
| 20260903190036 | 78 | 182 | 0.0 | 0.0 | 0.00 | 0.00 | 0.00 | 69 | 1013.3 |
| 20260903184539 | 94 | 209 | 11.0 | 16.0 | 0.00 | 0.00 | 0.00 | 49 | 1009.3 |
| 20260903184536 | 77 | 142 | 0.0 | 0.0 | 0.00 | 0.00 | 0.00 | 69 | 1013.6 |
| 20260903183038 | 93 | 203 | 9.0 | 20.0 | 0.00 | 0.00 | 0.00 | 49 | 1009.4 |
| 20260903183034 | 78 | 159 | 0.0 | 0.0 | 0.00 | 0.00 | 0.00 | 68 | 1013.7 |
| 20260903181533 | 77 | 196 | 0.0 | 0.0 | 0.00 | 0.00 | 0.00 | 70 | 1013.7 |
| 20260903181531 | 93 | 193 | 7.0 | 23.0 | 0.00 | 0.00 | 0.00 | 49 | 1009.6 |
| 20260903180034 | 92 | 204 | 12.0 | 19.0 | 0.00 | 0.00 | 0.00 | 50 | 1009.6 |
| 20260903180032 | 76 | 148 | 0.0 | 0.0 | 0.00 | 0.00 | 0.00 | 72 | 1013.7 |
| 20260903174525 | 92 | 108 | 7.0 | 20.0 | 0.00 | 0.00 | 0.00 | 51 | 1010.0 |
| 20260903174523 | 74 | 138 | 0.0 | 0.0 | 0.00 | 0.00 | 0.00 | 74 | 1013.8 |
| 20260903173022 | 92 | 117 | 8.0 | 16.0 | 0.00 | 0.00 | 0.00 | 52 | 1010.0 |
| 20260903173020 | 74 | 136 | 0.0 | 0.0 | 0.00 | 0.00 | 0.00 | 73 | 1013.9 |
| 20260903171526 | 74 | 144 | 0.0 | 0.0 | 0.00 | 0.00 | 0.00 | 73 | 1014.1 |
| 20260903171519 | 91 | 223 | 7.0 | 18.0 | 0.00 | 0.00 | 0.00 | 53 | 1010.1 |
| 20260903170032 | 74 | 128 | 0.0 | 0.0 | 0.00 | 0.00 | 0.00 | 73 | 1014.0 |
| 20260903170016 | 91 | 195 | 8.0 | 18.0 | 0.00 | 0.00 | 0.00 | 53 | 1010.3 |
| 20260903164520 | 73 | 117 | 0.0 | 0.0 | 0.00 | 0.00 | 0.00 | 74 | 1014.1 |
| 20260903164513 | 90 | 181 | 9.0 | 18.0 | 0.00 | 0.00 | 0.00 | 54 | 1010.6 |
| 20260903163020 | 73 | 109 | 0.0 | 0.0 | 0.00 | 0.00 | 0.00 | 76 | 1013.9 |
| 20260903163010 | 89 | 191 | 7.0 | 18.0 | 0.00 | 0.00 | 0.00 | 55 | 1010.6 |
| 20260903161508 | 72 | 95 | 0.0 | 0.0 | 0.00 | 0.00 | 0.00 | 78 | 1013.9 |
| 20260903160006 | 71 | 97 | 0.0 | 0.0 | 0.00 | 0.00 | 0.00 | 78 | 1013.9 |
| 20260903154504 | 70 | 5 | 0.0 | 0.0 | 0.00 | 0.00 | 0.00 | 79 | 1013.9 |
| 20260903154502 | 87 | 224 | 8.0 | 17.0 | 0.00 | 0.00 | 0.00 | 59 | 1010.7 |
| 20260903153001 | 70 | 78 | 0.0 | 0.0 | 0.00 | 0.00 | 0.00 | 79 | 1013.8 |